Location: Heidgraben
(53.7081°N, 9.6576°E)
Time: 01:43:21
(UTC+00:00)

Cosmos 923 Rocket - Visible Passes

Search period start: 24 October 2020 00:00
Search period end: 03 November 2020 00:00
Orbit: 759 x 784 km, 74.0° (Epoch: 23 October)

Date Brightness Start Highest point End Pass type
(mag) Time Alt. Az. Time Alt. Az. Time Alt. Az.
24 Oct 6.3 01:30:49 20° NNE 01:30:49 20° NNE 01:32:20 10° NNE visible
24 Oct 5.5 03:11:10 23° NNW 03:11:10 23° NNW 03:14:11 10° NNE visible
25 Oct 6.8 00:55:43 13° NE 00:55:43 13° NE 00:56:17 10° NE visible
25 Oct 5.7 02:36:04 23° N 02:36:04 23° N 02:38:24 10° NNE visible
25 Oct 6.0 04:16:25 11° NW 04:17:24 12° NNW 04:19:24 10° N visible
26 Oct 6.2 02:00:56 20° NNE 02:00:56 20° NNE 02:02:34 10° NNE visible
26 Oct 5.9 03:41:17 15° NNW 03:41:17 15° NNW 03:43:55 10° N visible
27 Oct 6.6 01:25:47 15° NNE 01:25:47 15° NNE 01:26:41 10° NNE visible
27 Oct 6.0 03:06:08 17° NNW 03:06:08 17° NNW 03:08:16 10° N visible
28 Oct 7.0 00:50:38 11° NNE 00:50:38 11° NNE 00:50:45 10° NNE visible
28 Oct 6.2 02:30:59 17° N 02:30:59 17° N 02:32:34 10° NNE visible
29 Oct 6.5 01:55:48 15° N 01:55:48 15° N 01:56:47 10° NNE visible
29 Oct 6.2 03:36:09 12° NNW 03:36:09 12° NNW 03:37:43 10° N visible
30 Oct 6.8 01:20:37 12° NNE 01:20:37 12° NNE 01:20:58 10° NNE visible
30 Oct 6.3 03:00:58 13° NNW 03:00:58 13° NNW 03:02:17 10° N visible
31 Oct 6.5 02:25:46 13° N 02:25:46 13° N 02:26:39 10° N visible
01 Nov 6.7 01:50:34 12° N 01:50:34 12° N 01:50:56 10° N visible
02 Nov 6.5 02:55:42 10° N 02:55:42 10° N 02:56:02 10° N visible
